SKW3566 KSLC-KLAX

Flight info

Callsign SKW3566
Flight time N/A
Altitude 36000
Route ARCHZ1 WINEN LAKRR Q73 HAKMN ANJLL4
Aircraft CRJ7/M-SDFGIRWY/S

Departure

Time 2026-05-08 03:57
Airport Salt Lake City International Airport (KSLC)

Arrival

Time N/A
Airport Los Angeles International Airport (KLAX)
Time Latitude Longitude Altitude Speed Heading
2026-05-08 03:44 40.78599 -111.98885 4223 ft 0 kts 173°
2026-05-08 03:50 40.78601 -111.98886 4223 ft 2 kts 173°
2026-05-08 03:50 40.78616 -111.98888 4223 ft 2 kts 173°
2026-05-08 03:50 40.78631 -111.98891 4223 ft 2 kts 173°
2026-05-08 03:51 40.78646 -111.98893 4223 ft 2 kts 173°
2026-05-08 03:51 40.78661 -111.98895 4223 ft 1 kts 173°
2026-05-08 03:51 40.78663 -111.98895 4223 ft 0 kts 173°
2026-05-08 03:53 40.78658 -111.98898 4223 ft 3 kts 215°
2026-05-08 03:53 40.78664 -111.98945 4223 ft 5 kts 291°
2026-05-08 03:53 40.78670 -111.99014 4223 ft 11 kts 265°
2026-05-08 03:53 40.78659 -111.99167 4223 ft 21 kts 264°
2026-05-08 03:54 40.78646 -111.99381 4222 ft 23 kts 264°
2026-05-08 03:54 40.78545 -111.99452 4222 ft 17 kts 173°
2026-05-08 03:54 40.78422 -111.99438 4222 ft 17 kts 175°
2026-05-08 03:54 40.78305 -111.99425 4222 ft 16 kts 175°
2026-05-08 03:55 40.78170 -111.99412 4222 ft 22 kts 175°
2026-05-08 03:55 40.77994 -111.99438 4222 ft 28 kts 187°
2026-05-08 03:55 40.77796 -111.99419 4224 ft 23 kts 174°
2026-05-08 03:55 40.77648 -111.99403 4224 ft 20 kts 174°
2026-05-08 03:56 40.77530 -111.99415 4226 ft 11 kts 225°
2026-05-08 03:56 40.77520 -111.99509 4225 ft 10 kts 284°
2026-05-08 03:56 40.77583 -111.99558 4225 ft 14 kts 355°
2026-05-08 03:56 40.77820 -111.99583 4225 ft 67 kts 355°
2026-05-08 03:57 40.78535 -111.99670 4222 ft 135 kts 355°
2026-05-08 03:57 40.79626 -111.99800 4339 ft 173 kts 354°
2026-05-08 03:57 40.80834 -112.00066 4933 ft 179 kts 339°
2026-05-08 03:57 40.81813 -112.01045 5521 ft 184 kts 301°
2026-05-08 03:58 40.82100 -112.02680 6073 ft 191 kts 272°
2026-05-08 03:58 40.82111 -112.04381 6758 ft 191 kts 271°
2026-05-08 03:58 40.82095 -112.06110 7455 ft 190 kts 271°
2026-05-08 03:58 40.82061 -112.07842 7998 ft 197 kts 271°
2026-05-08 03:59 40.81747 -112.09738 8205 ft 231 kts 249°
2026-05-08 03:59 40.81030 -112.11732 8534 ft 254 kts 249°
2026-05-08 03:59 40.80244 -112.13941 8880 ft 274 kts 248°
2026-05-08 03:59 40.79415 -112.16228 9406 ft 284 kts 249°
2026-05-08 04:00 40.78561 -112.18568 10255 ft 281 kts 249°
2026-05-08 04:00 40.77733 -112.20852 11004 ft 282 kts 249°
2026-05-08 04:00 40.76875 -112.23217 11504 ft 292 kts 249°
2026-05-08 04:00 40.75930 -112.25641 11860 ft 308 kts 239°
2026-05-08 04:01 40.74241 -112.27500 12357 ft 328 kts 210°
2026-05-08 04:01 40.72006 -112.28151 13024 ft 337 kts 191°
2026-05-08 04:01 40.69691 -112.28519 13668 ft 336 kts 194°
2026-05-08 04:01 40.67336 -112.28976 14159 ft 342 kts 194°
2026-05-08 04:02 40.64964 -112.29452 14620 ft 348 kts 194°
2026-05-08 04:02 40.62552 -112.29939 15102 ft 353 kts 193°
2026-05-08 04:02 40.60109 -112.30437 15573 ft 358 kts 193°
2026-05-08 04:02 40.57623 -112.30942 16009 ft 364 kts 193°
2026-05-08 04:03 40.55183 -112.31663 16486 ft 362 kts 202°
2026-05-08 04:03 40.50335 -112.33678 17311 ft 371 kts 202°
2026-05-08 04:03 40.47853 -112.34695 17770 ft 375 kts 202°
2026-05-08 04:04 40.45365 -112.35712 18239 ft 377 kts 202°
2026-05-08 04:04 40.42842 -112.36746 18681 ft 380 kts 201°
2026-05-08 04:04 40.40307 -112.37780 19148 ft 382 kts 201°
2026-05-08 04:04 40.37771 -112.38811 19566 ft 386 kts 201°
2026-05-08 04:05 40.35212 -112.39855 20026 ft 387 kts 201°
2026-05-08 04:05 40.32623 -112.40910 20476 ft 390 kts 201°
2026-05-08 04:05 40.30020 -112.41968 20900 ft 393 kts 201°
2026-05-08 04:05 40.27430 -112.43021 21317 ft 395 kts 201°
2026-05-08 04:06 40.24776 -112.44102 21714 ft 399 kts 201°
2026-05-08 04:06 40.22138 -112.45171 22167 ft 400 kts 201°
2026-05-08 04:06 40.19481 -112.46248 22600 ft 402 kts 201°
2026-05-08 04:06 40.16889 -112.47673 22933 ft 401 kts 213°
2026-05-08 04:07 40.14454 -112.49412 23380 ft 402 kts 212°
2026-05-08 04:07 40.11984 -112.51159 23808 ft 404 kts 212°
2026-05-08 04:07 40.09513 -112.52903 24113 ft 409 kts 212°
2026-05-08 04:07 40.06981 -112.54684 24551 ft 410 kts 212°
2026-05-08 04:08 40.04474 -112.56447 24933 ft 413 kts 213°
2026-05-08 04:08 40.01941 -112.58228 25306 ft 415 kts 213°
2026-05-08 04:08 39.99399 -112.60012 25633 ft 419 kts 213°
2026-05-08 04:08 39.96848 -112.61799 26025 ft 421 kts 213°
2026-05-08 04:09 39.94244 -112.63625 26385 ft 423 kts 213°
2026-05-08 04:09 39.91667 -112.65427 26741 ft 426 kts 212°
2026-05-08 04:09 39.89032 -112.67271 27065 ft 429 kts 212°
2026-05-08 04:09 39.86418 -112.69096 27435 ft 431 kts 212°
2026-05-08 04:10 39.83778 -112.70938 27730 ft 434 kts 212°
2026-05-08 04:10 39.81093 -112.72810 28107 ft 436 kts 212°
2026-05-08 04:10 39.78443 -112.74656 28453 ft 438 kts 212°
2026-05-08 04:10 39.75735 -112.76540 28743 ft 442 kts 212°
2026-05-08 04:11 39.73047 -112.78410 29068 ft 444 kts 212°
2026-05-08 04:11 39.70314 -112.80311 29422 ft 446 kts 212°
2026-05-08 04:11 39.67496 -112.82104 29722 ft 453 kts 204°
2026-05-08 04:11 39.64500 -112.83329 30153 ft 455 kts 200°
2026-05-08 04:12 39.61474 -112.84531 30630 ft 455 kts 200°
2026-05-08 04:12 39.58465 -112.85725 31147 ft 453 kts 201°
2026-05-08 04:12 39.55446 -112.86927 31649 ft 454 kts 200°
2026-05-08 04:12 39.52445 -112.88121 32096 ft 456 kts 201°
2026-05-08 04:13 39.49390 -112.89337 32604 ft 457 kts 201°
2026-05-08 04:13 39.46390 -112.90530 33186 ft 456 kts 200°
2026-05-08 04:13 39.43375 -112.91726 33788 ft 456 kts 201°
2026-05-08 04:13 39.40322 -112.92937 34509 ft 454 kts 201°
2026-05-08 04:14 39.37352 -112.94115 35236 ft 452 kts 201°
2026-05-08 04:14 39.34333 -112.95310 35963 ft 450 kts 201°
2026-05-08 04:14 39.31324 -112.96506 36133 ft 461 kts 201°
2026-05-08 04:14 39.28222 -112.97733 36071 ft 470 kts 200°
2026-05-08 04:15 39.21939 -113.00213 36086 ft 478 kts 200°
2026-05-08 04:15 39.15546 -113.02730 36115 ft 480 kts 200°
2026-05-08 04:16 39.09210 -113.05223 36141 ft 480 kts 200°
2026-05-08 04:16 39.02824 -113.07728 36134 ft 481 kts 200°
2026-05-08 04:17 38.96417 -113.10239 36144 ft 481 kts 200°
2026-05-08 04:17 38.90006 -113.12748 36159 ft 481 kts 200°
2026-05-08 04:18 38.83602 -113.15247 36142 ft 481 kts 200°
2026-05-08 04:18 38.77230 -113.17731 36140 ft 480 kts 200°
2026-05-08 04:19 38.70857 -113.20208 36144 ft 480 kts 200°
2026-05-08 04:19 38.64460 -113.22693 36183 ft 480 kts 200°
2026-05-08 04:20 38.58085 -113.25163 36215 ft 479 kts 200°
2026-05-08 04:20 38.51718 -113.27625 36219 ft 479 kts 199°
2026-05-08 04:21 38.45345 -113.30087 36238 ft 480 kts 199°
2026-05-08 04:21 38.39122 -113.32482 36235 ft 480 kts 199°
2026-05-08 04:22 38.32724 -113.34943 36227 ft 480 kts 199°
2026-05-08 04:22 38.26325 -113.37399 36235 ft 480 kts 199°
2026-05-08 04:23 38.20188 -113.39751 36238 ft 480 kts 199°
2026-05-08 04:23 38.13787 -113.42201 36233 ft 480 kts 199°
2026-05-08 04:24 38.07425 -113.44630 36233 ft 480 kts 199°
2026-05-08 04:24 38.01054 -113.47059 36229 ft 480 kts 199°
2026-05-08 04:25 37.94654 -113.49493 36236 ft 480 kts 199°
2026-05-08 04:25 37.88329 -113.52171 36227 ft 479 kts 201°
2026-05-08 04:26 37.82037 -113.54915 36215 ft 479 kts 201°
2026-05-08 04:26 37.75746 -113.57651 36207 ft 479 kts 201°
2026-05-08 04:27 37.69463 -113.60375 36207 ft 479 kts 201°
2026-05-08 04:27 37.63171 -113.63101 36232 ft 479 kts 201°
2026-05-08 04:28 37.56885 -113.65820 36221 ft 479 kts 200°
2026-05-08 04:28 37.50588 -113.68536 36222 ft 479 kts 200°
2026-05-08 04:29 37.44309 -113.71240 36229 ft 479 kts 200°
2026-05-08 04:29 37.37999 -113.73955 36190 ft 480 kts 200°
2026-05-08 04:30 37.31697 -113.76660 36174 ft 480 kts 200°
2026-05-08 04:30 37.25402 -113.79357 36124 ft 481 kts 200°
2026-05-08 04:31 37.19055 -113.82072 36119 ft 481 kts 200°
2026-05-08 04:31 37.12751 -113.84764 36069 ft 481 kts 200°
2026-05-08 04:32 37.06408 -113.87466 36049 ft 481 kts 200°
2026-05-08 04:32 37.00106 -113.90146 36037 ft 481 kts 200°
2026-05-08 04:33 36.93768 -113.92838 36031 ft 480 kts 200°
2026-05-08 04:33 36.87431 -113.95525 36001 ft 480 kts 200°